一网星座-0205星 (ONEWEB-0205 )

导读

ONEWEB-0205是英国OneWeb星座下的低轨互联网通信卫星,于2021年4月25日在英国发射升空,属于OneWeb全球卫星互联网项目的组成部分。OneWeb项目计划在近地轨道部署数百颗卫星,为全球偏远、基础设施薄弱地区提供高速低延时的宽带互联网接入,推动全球网络覆盖,该项目在英国政府主导的重组后持续推进建设,是商业低轨卫星互联网领域的重要组成。

基本信息
目录编号:
48226
目录名称:
ONEWEB-0205
国际标识:
2021-031S
轨道中心:
EARTH
卫星名称:
一网星座-0205星
卫星全名:
一网星座-0205星 (ONEWEB-0205 )
卫星状态:
在轨 (已飞行1876 天)
发射日期:
2021-04-25 UTC
国别 :
英国 (GB)
星等 :
--
轨道信息
数据来源 国际轨道数据 AOE轨道数据
星历时间 2026-06-14T04:45:08+0800
13小时前
查看轨道信息
2026-06-11T06:00:00+0800
3天前
查看轨道信息
半长轴 7583.919km 7583.908km
偏心率 0.0002092 0.00018
轨道倾角 87.897° 87.897°
近地点辐角 107.159° 89.278°
升交点赤经 290.359° 290.945°
平近点角 252.977° 8.188°
近地点 1204.195km 1204.405km
远地点 1207.369km 1207.137km
周期 109.547分钟 109.547分钟
每日圈数 13.14505 13.145079
详细信息
平衡模式:
三轴稳定
覆盖范围:
全球
运营商:
一网卫星公司
运营商所在国:
英国
制造商(研发单位):
一网卫星公司
制造商所在国:
英国
使用方式:
暂无
卫星简介
OneWeb卫星网络由648颗重约125公斤的微型卫星组成,运行在1200公里的轨道上。 每颗卫星都能够提供至少每秒8千兆位的吞吐量,以使用其高吞吐量的Ku频段有效载荷为家庭和移动平台提供互联网接入。该卫星仍在工作。
2D轨道图
3D轨道图
轨道高度分析图
轨道倾角分析图
轨道综合分析图
查看轨道综合分析图